Regional Weather Roundup
Issued by NWS Boston, MA

Current Version | Previous Version | Text Only | Print | Product List | Glossary Off
Versions: 1 2 3 4 5 6 7 8 9 10 11 12 13 14 15 16 17 18 19 20 21 22 23 24 25 26 27
000 ASUS41 KBOX 280510 RWRBOX REGIONAL WEATHER ROUNDUP NATIONAL WEATHER SERVICE TAUNTON MA 100 AM EDT FRI APR 28 2017 NOTE: "FAIR" INDICATES FEW OR NO CLOUDS BELOW 12,000 FEET WITH NO SIGNIFICANT WEATHER AND/OR OBSTRUCTIONS TO VISIBILITY. MAZALL-280600- EASTERN MASSACHUSETTS CITY SKY/WX TMP DP RH WIND PRES REMARKS BOSTON CLOUDY 58 56 93 S6 29.94S BEVERLY CLOUDY 56 53 90 SE3 29.93S LAWRENCE CLOUDY 58 54 86 CALM 29.95R BEDFORD CLOUDY 59 54 83 S5 29.91F BLUE HILL N/A 57 54 89 S12 29.93S NORWOOD CLOUDY 60 56 86 S5 29.93S MARSHFIELD CLOUDY 57 57 100 S6 29.95R PLYMOUTH CLOUDY 56 54 93 S5 29.96R TAUNTON CLOUDY 58 55 90 SE6 29.95R NEW BEDFORD CLOUDY 55 54 96 S6 29.95S FOG $$ MAZALL-280600- CAPE COD AND THE ISLANDS CITY SKY/WX TMP DP RH WIND PRES REMARKS FALMOUTH CLOUDY 54 54 100 MISG 29.98R HYANNIS CLOUDY 53 52 96 S6 29.97R CHATHAM CLOUDY 52 51 97 S3 29.99R PROVINCETOWN CLOUDY 53 52 96 S8 29.97R NANTUCKET FOG 50 49 96 SE5 29.98S VSB 3/4 MARTHAS VNYRD CLOUDY 56 54 93 SE9G18 29.97S $$ MAZALL-280600- CENTRAL AND WESTERN MASSACHUSETTS CITY SKY/WX TMP DP RH WIND PRES REMARKS WORCESTER CLOUDY 55 54 96 S6 29.93F FOG FITCHBURG CLOUDY 62 57 83 S6 29.92S ORANGE CLOUDY 58 58 100 S8 29.91S SPRINGFIELD CLOUDY 59 56 91 S6 29.89F WESTFIELD CLOUDY 58 58 100 S6 29.90S FOG NORTH ADAMS CLOUDY 62 57 83 E6 29.88R PITTSFIELD CLOUDY 59 56 89 S3 29.87S $$ RIZALL-280600- RHODE ISLAND CITY SKY/WX TMP DP RH WIND PRES REMARKS PROVIDENCE CLOUDY 54 54 100 S7 29.96R FOG NEWPORT FOG 53 53 100 SE7 29.95F VSB 1/2 BLOCK ISLAND FOG 54 54 100 S10 29.95S VSB 1/2 SMITHFIELD CLOUDY 56 55 97 CALM 29.95S WESTERLY FOG 55 55 100 SE8 29.94F VSB 1/2 $$ CTZALL-280600- CONNECTICUT CITY SKY/WX TMP DP RH WIND PRES REMARKS BRADLEY INTL DRIZZLE 58 57 97 S6 29.90F FOG HARTFORD CLOUDY 59 57 93 S5 29.90F BRIDGEPORT FOG 53 51 93 E8 29.91S VSB 1/2 DANBURY FOG 57 57 100 VRB3 29.90F VSB 1 GROTON FOG 54 53 97 E7 29.93F VSB 3/4 NEW HAVEN FOG 54 54 100 E8 29.91S VSB 3/4 CHESTER FOG 55 55 100 CALM 29.92F VSB 1/4 MERIDEN CLOUDY 59 57 93 CALM 29.90F FOG WILLIMANTIC CLOUDY 59 57 93 S3 29.93F FOG OXFORD CLOUDY 57 54 88 S6 29.92S VSB<1/4 $$ MEZ002-015-021-024-NHZ003-005-008-011-012-014-VTZ005-008-280600- NORTHERN NEW ENGLAND CITY SKY/WX TMP DP RH WIND PRES REMARKS PORTLAND ME CLOUDY 47 47 100 E3 29.95F FOG BANGOR ME DRIZZLE 51 51 100 SE8 29.95S FOG CONCORD NH CLOUDY 56 53 90 SE5 29.92S MANCHESTER NH CLOUDY 57 52 83 SE5 29.91S NASHUA NH CLOUDY 57 54 89 SE5 29.92F PORTSMOUTH NH CLOUDY 48 48 97 CALM 29.93R FOG JAFFREY NH CLOUDY 59 59 100 S8 29.92S KEENE NH CLOUDY 61 57 87 S6 29.90F BURLINGTON VT PTCLDY 67 57 70 S15 29.79R MT. WASHINGTON FOG 43 43 100 SW28G39 N/A VSB 0 $$ NYZ052-076-280600- EASTERN NEW YORK CITY SKY/WX TMP DP RH WIND PRES REMARKS ALBANY CLOUDY 63 56 78 S14 29.84F NEW YORK CITY CLOUDY 59 56 89 SE6 29.87F FOG $$ ANZALL-280600- MARINE OBSERVATIONS STATION/POSITION TIME TEMP WIND PRES VSBY WAVE AIR SEA DIR/SP/G HT/PER (UTC) (F) (DEG/KT/KT) (MB) (MI) (FT/S) BOSTON BUOY 0350 50 47 140/ 8/ 10 1012.9 4/10 BUZZARDS BAY 0400 50 170/ 12/ 12 1015.1R NANTUCKET SOUND 0450 50 1015.0R 2/ 9 MASS BAY-STELLWA 0404 50 47 170/ 10/ 10 1012.9F 3/10 ISLE OF SHOALS 0400 47 80/ 3/ 3 1013.5F S OF BLOCK IS 0455 49 N/A 6/ 9 $$ ......................KEY......................... SKY/WX - SKY CONDITION/PRESENT WEATHER TMP - TEMPERATURE IN FAHRENHEIT DWPT - DEWPOINT IN FAHRENHEIT RH - RELATIVE HUMIDITY IN PERCENT WIND - DIRECTION AND SPEED IN MPH PRES - MEAN SEA LEVEL PRESSURE IN INCHES OF HG WCI - WIND CHILL INDEX VSB - VISIBILITY IN MILES HX - HEAT INDEX TC - TEMPERATURE IN CELSIUS VRB - VARIABLE WIND DIRECTION N/A - NOT AVAILABLE

USA.gov is the U.S. government's official web portal to all federal, state and local government web resources and services.